[[{"header":{"parameterUnit":"m.s-1","parameterCategory":1,"la1":30.2991,"la2":30.254,"lo1":-89.0895,"lo2":-89.0444,"dy":0.0017,"dx":0.0017,"nx":28,"ny":28,"refTime":"2025-04-29T09:00:00:Z","depth":0,"parameterNumber":2,"parameterNumberName":"U-component_of_WINDS"},"data":[0,0,0,0,0,0,0,0,0,0,0,0,0,0,0,0,0,0,0,0,0,0,0,0,0,0,0,0,0,0,0,0,0,0,0,0,0,0,0,0,0,0,0,0,0,0,0,0,0,0,0,0,0,0,0,0,0,0,-2.5966,-2.5966,0,-2.5962,-2.5962,-2.5962,-2.5931,-2.593,-2.593,-2.5929,-2.5926,-2.5926,-2.5927,0,0,0,0,0,0,0,0,0,0,0,0,0,-2.5947,-2.5948,-2.5966,-2.5966,-2.5966,-2.5962,-2.5962,-2.5962,-2.5931,-2.593,-2.5929,-2.5928,-2.5925,-2.5926,-2.5927,0,0,0,0,0,0,0,0,0,0,0,0,0,-2.5951,-2.5948,-2.5966,-2.595,-2.5948,-2.5962,-2.5962,-2.5962,-2.5931,-2.593,-2.5929,-2.5928,-2.5925,-2.5926,-2.5927,-2.5956,0,0,-2.593,-2.593,0,0,0,0,0,0,0,0,-2.5951,-2.5952,-2.5952,-2.5951,-2.5949,-2.5946,-2.5955,-2.596,-2.5932,-2.5938,-2.5929,-2.5927,-2.5933,-2.5934,-2.5935,-2.5956,-2.5956,-2.593,-2.5931,-2.5931,-2.5931,0,0,0,0,0,0,0,-2.5951,-2.5952,-2.5964,-2.5952,-2.5951,-2.5943,-2.5943,-2.5955,-2.5942,-2.5937,-2.5935,-2.5935,-2.5932,-2.5935,-2.5935,-2.5956,-2.593,-2.5931,-2.5931,-2.5932,-2.6001,-2.6002,0,0,0,0,0,0,-2.5952,-2.5952,-2.5965,-2.5964,-2.5947,-2.5945,-2.5944,-2.5948,-2.5942,-2.594,-2.5936,-2.5934,-2.5934,-2.5934,-2.5935,-2.5969,-2.5931,-2.5932,-2.5932,-2.6,-2.6001,-2.6003,0,0,0,0,0,0,-2.5952,-2.5954,-2.5965,-2.5957,-2.5958,-2.5946,-2.5951,-2.5949,-2.5951,-2.5941,-2.5939,-2.5941,-2.5933,-2.5934,-2.5951,-2.5968,-2.5932,-2.5933,-2.5998,-2.6,-2.6002,-2.6036,0,0,0,0,0,0,-2.5952,-2.5954,-2.5964,-2.5958,-2.5959,-2.5981,-2.5952,-2.595,-2.5953,-2.5949,-2.5945,-2.5943,-2.5932,-2.595,-2.5952,-2.5969,-2.5934,-2.5997,-2.5999,-2.6001,-2.6033,-2.6039,-2.6044,0,0,0,0,0,-2.5951,-2.5974,-2.5965,-2.5967,-2.5971,-2.5982,-2.5982,-2.5969,-2.5954,-2.5965,-2.5959,-2.5943,-2.5966,-2.5952,-2.5954,-2.5971,-2.5996,-2.5998,-2.6001,-2.6031,-2.6038,-2.6044,0,0,0,0,0,0,-2.5982,-2.5973,-2.5962,-2.5984,-2.5984,-2.5976,-2.5989,-2.5976,-2.5981,-2.5977,-2.5961,-2.596,-2.5981,-2.5978,-2.5962,-2.6,-2.5978,-2.5982,-2.6,-2.6007,-2.6012,-2.6011,-2.5935,0,0,0,0,0,-2.5992,-2.6,-2.5992,-2.6011,-2.6012,-2.6001,-2.6005,-2.5995,-2.5994,-2.5994,-2.5989,-2.5989,-2.5997,-2.6002,-2.6008,-2.6034,-2.6032,-2.6047,-2.6052,-2.6056,-2.6059,-2.6073,-2.6079,-2.6012,-2.6012,-2.6012,0,0,-2.6011,-2.6007,-2.6013,-2.6018,-2.6016,-2.6026,-2.6001,-2.6012,-2.6019,-2.5996,-2.6012,-2.6009,-2.6008,-2.603,-2.6039,-2.6028,-2.6077,-2.606,-2.6063,-2.6064,-2.6076,-2.6083,-2.6088,-2.6014,-2.6014,-2.6013,0,0,-2.605,-2.6049,-2.6065,-2.6064,-2.6063,-2.6056,-2.606,-2.6055,-2.6052,-2.6068,-2.6051,-2.606,-2.6073,-2.6073,-2.6075,-2.6118,-2.6104,-2.6121,-2.6147,-2.616,-2.6166,-2.617,-2.6185,-2.6191,-2.6124,-2.6124,-2.6124,0,-2.6074,-2.6088,-2.6075,-2.6087,-2.609,-2.607,-2.6087,-2.6087,-2.6088,-2.6091,-2.6079,-2.6096,-2.6094,-2.6116,-2.6126,-2.6129,-2.6133,-2.612,-2.6166,-2.617,-2.6175,-2.6188,-2.6194,-2.6126,-2.6125,-2.6125,-2.6125,0,-2.6118,-2.6128,-2.6141,-2.6143,-2.6147,-2.6162,-2.6151,-2.6158,-2.6148,-2.6143,-2.616,-2.6158,-2.6163,-2.6168,-2.6159,-2.6189,-2.6183,-2.6169,-2.6147,-2.6183,-2.6196,-2.6201,-2.6129,-2.6128,-2.6127,-2.6127,0,0,-2.6174,-2.617,-2.6175,-2.6176,-2.6174,-2.6182,-2.6196,-2.6202,-2.6208,-2.621,-2.6222,-2.6235,-2.6222,-2.6224,-2.6215,-2.6228,-2.6262,-2.6212,-2.6212,-2.6221,-2.6295,-2.6305,-2.6311,-2.6253,-2.6254,-2.6255,-2.6295,0,-2.6212,-2.6236,-2.6225,-2.625,-2.6259,-2.6242,-2.6255,-2.6255,-2.6251,-2.6259,-2.6255,-2.6264,-2.6247,-2.6248,-2.626,-2.6255,-2.6276,-2.6252,-2.6264,-2.6264,-2.6263,-2.6318,-2.6327,-2.6365,-2.63,-2.6301,-2.6301,0,-2.6258,-2.6263,-2.6289,-2.6286,-2.629,-2.6301,-2.6306,-2.6314,-2.6315,-2.6312,-2.6315,-2.6304,-2.6319,-2.6299,-2.6319,-2.6303,-2.6308,-2.6307,-2.6308,-2.6307,-2.6284,-2.6318,-2.6377,-2.6382,-2.6309,-2.6309,-2.6308,0,-2.6297,-2.6309,-2.6326,-2.6328,-2.6326,-2.6334,-2.6334,-2.6334,-2.6338,-2.6343,-2.6346,-2.6353,-2.6357,-2.6363,-2.6354,-2.634,-2.6376,-2.6354,-2.6373,-2.6373,-2.6379,-2.6379,-2.6439,-2.6385,-2.6385,-2.6385,-2.6384,0,-2.6339,-2.6355,-2.6344,-2.6354,-2.6372,-2.6361,-2.638,-2.6377,-2.6378,-2.6388,-2.6374,-2.6384,-2.6373,-2.6382,-2.6376,-2.6393,-2.6395,-2.6393,-2.6391,-2.6393,-2.6393,-2.6395,-2.6391,-2.6386,-2.6386,-2.6385,-2.6385,0,-2.6384,-2.6376,-2.6394,-2.6391,-2.6391,-2.6404,-2.6402,-2.6412,-2.6408,-2.6421,-2.6424,-2.6417,-2.6427,-2.642,-2.643,-2.6426,-2.6449,-2.6444,-2.6449,-2.6447,-2.6465,-2.6463,-2.6527,-2.6535,-2.6477,-2.6477,-2.6478,0,-2.641,-2.6423,-2.6421,-2.6427,-2.6428,-2.6437,-2.6442,-2.6432,-2.6438,-2.6441,-2.6451,-2.646,-2.6467,-2.6484,-2.6481,-2.6489,-2.6483,-2.6505,-2.6484,-2.6487,-2.6482,-2.6481,-2.6483,-2.6509,-2.6509,-2.651,-2.6511,0,-2.6459,-2.6455,-2.6462,-2.6469,-2.6475,-2.648,-2.6483,-2.6489,-2.6479,-2.6487,-2.6497,-2.6503,-2.6514,-2.6523,-2.653,-2.653,-2.6519,-2.6518,-2.6522,-2.6524,-2.6526,-2.6525,-2.6459,-2.6516,-2.6515,-2.6515,-2.6514,-2.6514,-2.6495,-2.6505,-2.6506,-2.6515,-2.6517,-2.6521,-2.653,-2.6528,-2.6536,-2.6544,-2.6538,-2.6551,-2.6553,-2.6561,-2.6563,-2.6573,-2.6564,-2.6571,-2.6573,-2.6574,-2.6576,-2.6526,-2.6575,-2.6575,-2.6575,-2.6574,-2.6574,0,-2.6541,-2.6542,-2.655,-2.6556,-2.6563,-2.6553,-2.6557,-2.6564,-2.6575,-2.6578,-2.6585,-2.6598,-2.6607,-2.6605,-2.6614,-2.6623,-2.6618,-2.6625,-2.6624,-2.6624,-2.6584,-2.6579,-2.6629,-2.6629,-2.6629,-2.6629,-2.6629,-2.6629,-2.6566,-2.6583,-2.658,-2.6598,-2.6599,-2.6611,-2.6614,-2.6618,-2.662,-2.6635,-2.6643,-2.6642,-2.6643,-2.6652,-2.6661,-2.666,-2.6664,-2.6673,-2.667,-2.6632,-2.6627,-2.6622,-2.6617,-2.6674,-2.6674,-2.6709,-2.6709,-2.671]},{"header":{"parameterUnit":"m.s-1","parameterCategory":1,"la1":30.2991,"la2":30.254,"lo1":-89.0895,"lo2":-89.0444,"dy":0.0017,"dx":0.0017,"nx":28,"ny":28,"refTime":"2025-04-29T09:00:00:Z","depth":0,"parameterNumber":3,"parameterNumberName":"V-component_of_WINDS"},"data":[0,0,0,0,0,0,0,0,0,0,0,0,0,0,0,0,0,0,0,0,0,0,0,0,0,0,0,0,0,0,0,0,0,0,0,0,0,0,0,0,0,0,0,0,0,0,0,0,0,0,0,0,0,0,0,0,0,0,4.3078,4.3078,0,4.3032,4.3032,4.3031,4.3044,4.3045,4.3046,4.3047,4.2994,4.2992,4.299,0,0,0,0,0,0,0,0,0,0,0,0,0,4.3173,4.3171,4.3078,4.3078,4.3077,4.3032,4.3032,4.3031,4.3044,4.3045,4.3046,4.3048,4.2995,4.2992,4.2989,0,0,0,0,0,0,0,0,0,0,0,0,0,4.3129,4.317,4.3079,4.3079,4.3078,4.3033,4.3032,4.3031,4.3044,4.3045,4.3047,4.3048,4.2996,4.2992,4.2989,4.2939,0,0,4.2978,4.2977,0,0,0,0,0,0,0,0,4.3132,4.3126,4.3079,4.3078,4.3078,4.3046,4.3046,4.3,4.3044,4.3057,4.3047,4.3049,4.301,4.3005,4.2993,4.2936,4.2934,4.2978,4.2976,4.2975,4.2974,0,0,0,0,0,0,0,4.3135,4.3128,4.306,4.3078,4.3078,4.3079,4.3075,4.3037,4.3025,4.3056,4.3056,4.3051,4.301,4.2997,4.2992,4.2933,4.2978,4.2975,4.2973,4.2972,4.2834,4.2832,0,0,0,0,0,0,4.3139,4.313,4.3061,4.3059,4.3109,4.3076,4.3071,4.3054,4.3026,4.3023,4.305,4.3052,4.3002,4.2996,4.299,4.293,4.2975,4.2971,4.2969,4.2835,4.2833,4.2831,0,0,0,0,0,0,4.3141,4.3133,4.3063,4.3095,4.3086,4.3073,4.3054,4.3053,4.304,4.3022,4.3019,4.3039,4.3003,4.2995,4.2952,4.2928,4.297,4.2967,4.2837,4.2835,4.2832,4.2809,0,0,0,0,0,0,4.3144,4.3133,4.3115,4.3094,4.3084,4.3027,4.3053,4.3051,4.3034,4.3037,4.3011,4.3008,4.3003,4.2957,4.2949,4.2924,4.2964,4.2839,4.2836,4.2833,4.2812,4.2806,4.2801,0,0,0,0,0,4.3147,4.3109,4.3114,4.3106,4.3062,4.3026,4.302,4.3017,4.3033,4.3014,4.3002,4.3009,4.2933,4.2953,4.2943,4.2917,4.2841,4.2837,4.2833,4.2814,4.2807,4.2801,0,0,0,0,0,0,4.3125,4.3106,4.3112,4.3067,4.3048,4.3028,4.3004,4.301,4.2985,4.2988,4.2983,4.2977,4.2933,4.2921,4.2944,4.2868,4.2889,4.2883,4.2877,4.287,4.2865,4.2869,4.2961,0,0,0,0,0,4.3116,4.309,4.3074,4.3036,4.3026,4.3017,4.3001,4.3001,4.298,4.2972,4.2957,4.2936,4.2907,4.2888,4.2861,4.281,4.2805,4.2788,4.2783,4.2778,4.2773,4.2746,4.2738,4.282,4.282,4.282,0,0,4.3095,4.3081,4.3065,4.3031,4.3017,4.2989,4.301,4.2979,4.2958,4.2967,4.2926,4.2914,4.289,4.2843,4.2822,4.2832,4.275,4.2774,4.2771,4.2768,4.2741,4.2733,4.2727,4.2817,4.2818,4.2818,0,0,4.3043,4.303,4.2997,4.2983,4.2961,4.2956,4.2948,4.2927,4.2921,4.288,4.2886,4.286,4.2811,4.2793,4.2778,4.272,4.2725,4.2711,4.2683,4.2656,4.265,4.2644,4.2623,4.2616,4.2706,4.2706,4.2706,0,4.3019,4.2978,4.2979,4.2948,4.2932,4.2942,4.2907,4.2892,4.2862,4.2851,4.2863,4.2802,4.2786,4.2735,4.2722,4.2709,4.2699,4.2714,4.2651,4.2645,4.264,4.262,4.2612,4.2705,4.2705,4.2705,4.2705,0,4.295,4.2922,4.2897,4.2871,4.2853,4.282,4.2814,4.2795,4.2796,4.2789,4.2747,4.2729,4.2698,4.2686,4.2686,4.2635,4.2642,4.2653,4.2673,4.2631,4.2612,4.2604,4.2703,4.2703,4.2704,4.2704,0,0,4.2882,4.2857,4.2848,4.2836,4.2814,4.2791,4.2759,4.2731,4.2715,4.2694,4.2666,4.2624,4.2634,4.2617,4.2615,4.2592,4.2547,4.2605,4.2604,4.2594,4.249,4.2482,4.2473,4.2551,4.2549,4.2548,4.2492,0,4.2827,4.2773,4.2772,4.2721,4.2695,4.2703,4.2675,4.2657,4.2649,4.2625,4.2615,4.2586,4.2602,4.2592,4.2569,4.2557,4.2526,4.2561,4.2523,4.2522,4.2529,4.2463,4.2454,4.2402,4.2484,4.2483,4.2482,0,4.2756,4.2736,4.2682,4.2665,4.2654,4.2628,4.2603,4.258,4.256,4.2556,4.2537,4.2539,4.2505,4.2527,4.2479,4.2503,4.2488,4.248,4.2478,4.2473,4.2499,4.2456,4.2385,4.2377,4.247,4.2471,4.2472,0,4.2712,4.267,4.2633,4.2623,4.2601,4.2583,4.2573,4.2555,4.2538,4.2515,4.2504,4.2477,4.2462,4.244,4.2434,4.2451,4.2386,4.2408,4.238,4.238,4.2365,4.2366,4.229,4.2356,4.2356,4.2356,4.2357,0,4.2651,4.2618,4.2613,4.259,4.2553,4.2553,4.2515,4.2506,4.249,4.2464,4.247,4.2445,4.2439,4.2413,4.2408,4.2369,4.2362,4.2356,4.2355,4.2356,4.2356,4.2345,4.2348,4.2354,4.2355,4.2355,4.2356,0,4.2594,4.259,4.255,4.2534,4.2529,4.2502,4.2487,4.2465,4.2458,4.2426,4.2418,4.2407,4.2377,4.2369,4.2332,4.2329,4.2282,4.2285,4.229,4.229,4.2262,4.2265,4.2175,4.2163,4.2238,4.2237,4.2237,0,4.2556,4.2531,4.2512,4.2497,4.2486,4.2461,4.2444,4.2443,4.2425,4.2401,4.2381,4.2352,4.2328,4.2279,4.2267,4.2238,4.224,4.2211,4.2236,4.2237,4.2239,4.2241,4.2238,4.2206,4.2205,4.2204,4.2204,0,4.2487,4.2487,4.2464,4.2441,4.2422,4.2403,4.2384,4.2371,4.2366,4.2346,4.2316,4.2298,4.2262,4.2232,4.2204,4.2192,4.2196,4.2196,4.2188,4.2188,4.2192,4.2189,4.2276,4.2198,4.2198,4.2199,4.2199,4.2199,4.2438,4.2417,4.2401,4.2375,4.2362,4.2345,4.2323,4.2315,4.2291,4.2262,4.2262,4.223,4.221,4.2173,4.2159,4.2133,4.2141,4.213,4.2127,4.2124,4.2122,4.2197,4.2128,4.2128,4.2128,4.2128,4.2128,0,4.237,4.236,4.2337,4.2313,4.2293,4.2301,4.2281,4.2263,4.2235,4.2218,4.2195,4.2161,4.2132,4.2119,4.209,4.2072,4.2073,4.2064,4.2065,4.2062,4.2116,4.2125,4.2063,4.2063,4.2064,4.2064,4.2064,4.2064,4.2332,4.2296,4.2294,4.2251,4.2241,4.2211,4.2199,4.2183,4.2169,4.2131,4.2109,4.2101,4.2084,4.2055,4.2029,4.2025,4.2014,4.2004,4.2002,4.2052,4.2058,4.2064,4.2074,4.2002,4.2002,4.195,4.195,4.1949]}]]